User: anonymous
Location: Fort Wayne
(41.1310°N, 85.1290°W)
Time: 15:17:17
(UTC-04:00)
Language:

SR - Orbit

View from above orbital plane
View from above orbital plane
View from above satellite
View from above satellite

Ground track
Ground track

The orbit data is extracted from the following two-line orbital elements,

1 00046U 60007B   14113.48466228  .00001431  00000-0  31272-3 0  6256
2 00046 066.6938 353.7248 0214826 003.1769 357.0642 14.47662118813594
Epoch (UTC): 23 April 2014 11:37:54
Eccentricity: 0.0214826
inclination: 66.6938°
perigee height: 580 km
apogee height: 886 km
right ascension of ascending node: 353.7248°
argument of perigee: 3.1769°
revolutions per day: 14.47662118
mean anomaly at epoch: 357.0642°
orbit number at epoch: 81359

The dashed part of the orbit path shows where the satellite is in the earth's shadow,  

DLR